Zurück zum Katalog

STARLINK-35487

AktivKommunikationVLEO
NORAD 66262·PAYLOAD·🇺🇸 United States

Gestartet Oct 29, 2025 von Cape Canaveral Space Force Station

Loading…

Nächste Überflüge (nächste 24 Stunden)

TLE

AktuellSource: CelesTrak SupGP

Epoche: Sep 14, 2026, 21:38 UTC

1 66262C 25245AE  26257.90187500 -.00046256  00000+0 -14876-2 0  2571
2 66262  53.1569 123.7858 0001240  81.5235 257.8218 15.31723289    13

Verfolge STARLINK-35487 in Echtzeit mit AllMySat

Download on the App Store